Home   Weather   Cuiabá   Past weeks
Flag for Brazil

Past Weather in Cuiabá, Mato Grosso, Brazil — Yesterday and Last 2 Weeks

Now
82 °F

Passing clouds.


Feels Like: 85 °F
Forecast: 97 / 72 °F
Wind: 8 mph from Southeast

Location: Cuiaba Aeroporto

Current Time: Oct 13, 2019 at 8:54:38 pm

Latest Report: Oct 13, 2019 at 8:00 pm


Visibility: N/A

Pressure: 29.86 "Hg

Humidity: 58%

Dew Point: 66 °F

Location of CuiabáLocation

Past Weather in Cuiabá — Graph

°F

Cuiabá Temperature Yesterday

Maximum temperature yesterday: 99 °F (at 2:00 pm)
Minimum temperature yesterday: 73 °F (at 6:00 am)
Average temperature yesterday: 85 °F

High & Low Weather Summary for the Past Weeks

 TemperatureHumidityPressure
High104 °F (Oct 1, 2:00 pm)89% (Oct 5, 11:12 pm)30.04 "Hg (Oct 5, 11:12 pm)
Low70 °F (Oct 6, 5:00 am)22% (Oct 1, 4:00 pm)29.65 "Hg (Oct 1, 4:00 pm)
Average83 °F60%29.87 "Hg
* Reported Sep 28 7:00 pm — Oct 13 7:00 pm, Cuiabá. Weather by CustomWeather, © 2019

Note: Actual official high and low records may vary slightly from our data, if they occured in-between our weather recording intervals... More about our weather records

Advertising

Cuiabá Weather History for the Previous 24 Hours

Scroll right to see more
 ConditionsComfort  
Time TempWeatherWind HumidityBarometerVisibility
7:00 pm
Sun, Oct 13
81 °FPassing clouds.13 mph66%29.80 "HgN/A
6:00 pm84 °FLight rain. Passing clouds.12 mph55%29.77 "HgN/A
5:35 pm82 °FLight rain. Partly sunny.14 mph58%29.77 "Hg3 mi
5:00 pm79 °FThunderstorms. Scattered clouds.28 mph65%29.80 "Hg1 mi
4:00 pm99 °FPassing clouds.3 mph27%29.71 "HgN/A
3:00 pm100 °FPassing clouds.8 mph25%29.74 "HgN/A
2:00 pm99 °FPassing clouds.9 mph27%29.77 "HgN/A
1:00 pm99 °FPassing clouds.7 mph27%29.80 "HgN/A
12:00 pm97 °FSunny.8 mph32%29.86 "Hg10 mi
11:00 am95 °FSunny.8 mph34%29.89 "Hg10 mi
10:00 am91 °FSunny.10 mph44%29.89 "Hg10 mi
9:00 am90 °FSunny.8 mph43%29.89 "Hg10 mi
8:00 am84 °FSunny.8 mph58%29.89 "Hg10 mi
7:00 am79 °FSunny.7 mph70%29.89 "Hg10 mi
6:00 am75 °FSunny.3 mph78%29.86 "Hg10 mi
5:00 am75 °FClear.3 mph78%29.83 "Hg10 mi
4:00 am75 °FClear.7 mph78%29.83 "Hg10 mi
3:00 am75 °FClear.3 mph74%29.83 "Hg10 mi
2:00 am75 °FClear.5 mph78%29.80 "Hg10 mi
1:00 am79 °FClear.14 mph58%29.89 "Hg10 mi
12:00 am82 °FClear.16 mph55%29.89 "Hg10 mi
11:00 pm
Sat, Oct 12
84 °FClear.5 mph48%29.86 "Hg10 mi
10:00 pm82 °FClear.5 mph55%29.86 "Hg10 mi
9:00 pm88 °FClear.6 mph43%29.83 "Hg10 mi
8:00 pm86 °FClear.6 mph46%29.80 "Hg10 mi
Weather by CustomWeather, © 2019

See weather overview